FW0019 Weather Reports


Display with metric or nautical units.
time (UTC)temp
F
wind
direction
speed
MPH
gust
MPH
rain 1hr
in
rain 24hr
in
rain mn
in
humidity
%
barometer
mb
20260906030055 69 123 7.0 11.0 0.00 0.00 0.00 56 879.3
20260906024556 69 135 8.0 13.0 0.00 0.00 0.00 56 879.2
20260906023056 70 103 7.0 12.0 0.00 0.00 0.00 55 879.1
20260906021558 71 122 8.0 13.0 0.00 0.00 0.00 55 879.3
20260906020104 72 111 7.0 14.0 0.00 0.00 0.00 53 879.3
20260906014554 73 146 8.0 14.0 0.00 0.00 0.00 52 879.4
20260906013058 74 107 7.0 14.0 0.00 0.00 0.00 50 879.5
20260906011601 75 106 7.0 14.0 0.00 0.00 0.00 48 879.5
20260906010049 75 142 8.0 15.0 0.00 0.00 0.00 48 879.5
20260906004556 77 120 5.0 18.0 0.00 0.00 0.00 46 879.6
20260906003047 77 135 9.0 18.0 0.00 0.00 0.00 45 879.5
20260906001548 78 126 9.0 15.0 0.00 0.00 0.00 45 879.5
20260906000053 77 165 9.0 16.0 0.00 0.00 0.00 44 879.5
20260905234547 79 163 10.0 17.0 0.00 0.00 0.00 42 879.4
20260905233044 80 95 10.0 18.0 0.00 0.00 0.00 40 879.6
20260905231543 80 66 6.0 18.0 0.00 0.00 0.00 42 879.6
20260905230041 80 107 6.0 13.0 0.00 0.00 0.00 39 879.6
20260905224548 80 154 10.0 19.0 0.00 0.00 0.00 40 879.6
20260905223039 79 74 7.0 16.0 0.00 0.00 0.00 40 879.7
20260905221538 80 136 11.0 18.0 0.00 0.00 0.00 39 879.6
20260905220037 79 148 9.0 16.0 0.00 0.00 0.00 40 879.9
20260905214536 79 159 8.0 20.0 0.00 0.00 0.00 40 880.1
20260905213035 79 131 7.0 19.0 0.00 0.00 0.00 39 880.2
20260905211544 80 116 4.0 16.0 0.00 0.00 0.00 39 880.3
20260905210033 79 121 8.0 17.0 0.00 0.00 0.00 42 880.4
20260905204537 78 134 10.0 16.0 0.00 0.00 0.00 41 880.4
20260905203031 78 132 8.0 16.0 0.00 0.00 0.00 42 880.5
20260905201531 79 155 8.0 20.0 0.00 0.00 0.00 40 880.5
20260905200032 80 138 10.0 18.0 0.00 0.00 0.00 39 880.4
20260905194527 79 117 6.0 12.0 0.00 0.00 0.00 39 880.6
20260905193025 79 152 10.0 20.0 0.00 0.00 0.00 39 880.8
20260905191527 79 139 10.0 19.0 0.00 0.00 0.00 39 880.9
20260905190024 78 140 6.0 18.0 0.00 0.00 0.00 40 881.0
20260905184542 78 123 4.0 18.0 0.00 0.00 0.00 35 881.0
20260905183037 78 196 10.0 19.0 0.00 0.00 0.00 31 881.0
20260905181522 77 125 10.0 19.0 0.00 0.00 0.00 32 881.0
20260905180021 76 115 11.0 21.0 0.00 0.00 0.00 32 881.0
20260905174515 76 146 9.0 17.0 0.00 0.00 0.00 36 880.9
20260905173012 76 130 11.0 19.0 0.00 0.00 0.00 36 880.7
20260905171510 75 174 9.0 17.0 0.00 0.00 0.00 36 880.6
20260905170008 75 123 9.0 20.0 0.00 0.00 0.00 34 880.4
20260905164506 74 167 10.0 22.0 0.00 0.00 0.00 33 880.3
20260905163004 74 140 10.0 18.0 0.00 0.00 0.00 34 880.3
20260905161503 73 157 7.0 16.0 0.00 0.00 0.00 35 880.3
20260905154615 73 165 6.0 12.0 0.00 0.00 0.00 23 880.2
20260905153102 73 163 4.0 11.0 0.00 0.00 0.00 22 880.1
20260905151552 71 132 3.0 7.0 0.00 0.00 0.00 21 880.0
20260905150048 70 118 5.0 8.0 0.00 0.00 0.00 20 880.0
20260905144545 69 110 2.0 5.0 0.00 0.00 0.00 21 879.8
20260905143041 67 111 4.0 8.0 0.00 0.00 0.00 19 879.6
20260905141537 66 109 3.0 7.0 0.00 0.00 0.00 21 879.3
20260905140041 64 107 3.0 5.0 0.00 0.00 0.00 20 879.2
20260905134537 62 81 1.0 5.0 0.00 0.00 0.00 21 879.0
20260905133042 63 88 1.0 7.0 0.00 0.00 0.00 21 878.9
20260905131538 63 112 2.0 7.0 0.00 0.00 0.00 21 878.6
20260905130033 63 69 3.0 8.0 0.00 0.00 0.00 20 878.5
20260905124535 63 40 3.0 8.0 0.00 0.00 0.00 19 878.5
20260905123031 64 105 3.0 8.0 0.00 0.00 0.00 18 878.5
20260905121531 65 91 4.0 8.0 0.00 0.00 0.00 16 878.5
20260905120031 65 82 2.0 7.0 0.00 0.00 0.00 17 878.3
20260905114529 66 134 4.0 11.0 0.00 0.00 0.00 15 878.3
20260905113033 64 89 3.0 9.0 0.00 0.00 0.00 15 878.4
20260905111535 64 118 5.0 10.0 0.00 0.00 0.00 13 878.4
20260905110037 64 78 4.0 9.0 0.00 0.00 0.00 11 878.4
20260905104527 63 88 3.0 8.0 0.00 0.00 0.00 13 878.5
20260905103020 63 115 2.0 11.0 0.00 0.00 0.00 15 878.4
20260905101518 61 73 1.0 8.0 0.00 0.00 0.00 17 878.4
20260905100016 59 41 1.0 4.0 0.00 0.00 0.00 18 878.5
20260905094515 59 36 1.0 5.0 0.00 0.00 0.00 19 878.7
20260905093015 60 103 2.0 5.0 0.00 0.00 0.00 18 878.7
20260905091514 61 107 1.0 4.0 0.00 0.00 0.00 18 878.6
20260905090016 60 60 2.0 10.0 0.00 0.00 0.00 18 878.7
20260905084508 61 95 2.0 7.0 0.00 0.00 0.00 19 878.8
20260905083006 60 104 3.0 10.0 0.00 0.00 0.00 20 878.9
20260905081503 61 107 4.0 8.0 0.00 0.00 0.00 24 879.0
20260905080002 61 101 5.0 11.0 0.00 0.00 0.00 22 879.1
20260905074600 61 66 4.0 9.0 0.00 0.00 0.00 23 879.2
20260905073101 61 107 4.0 13.0 0.00 0.00 0.00 27 879.1
20260905071557 61 96 4.0 13.0 0.00 0.00 0.00 26 879.1
20260905070054 61 37 5.0 13.0 0.00 0.00 0.00 27 878.9
20260905064553 61 66 4.0 9.0 0.00 0.00 0.00 27 878.9
20260905063053 61 88 4.0 10.0 0.00 0.00 0.00 28 878.9
20260905061558 62 87 5.0 9.0 0.00 0.00 0.00 29 878.8
20260905060051 62 96 9.0 14.0 0.00 0.00 0.00 27 878.8
20260905054551 61 102 4.0 9.0 0.00 0.00 0.00 34 878.8
20260905053051 61 105 7.0 11.0 0.00 0.00 0.00 31 878.8
20260905051552 60 87 4.0 8.0 0.00 0.00 0.00 37 878.8
20260905050052 61 89 5.0 10.0 0.00 0.00 0.00 39 878.7
20260905044550 61 113 6.0 10.0 0.00 0.00 0.00 42 878.6
20260905043056 60 74 5.0 9.0 0.00 0.00 0.00 42 878.5
20260905041549 60 90 6.0 9.0 0.00 0.00 0.00 43 878.6
20260905040048 60 121 4.0 8.0 0.00 0.00 0.00 42 878.5
20260905034600 59 110 4.0 9.0 0.00 0.00 0.00 48 878.4
20260905033110 60 109 4.0 8.0 0.00 0.00 0.00 50 878.3
20260905031559 60 84 5.0 10.0 0.00 0.00 0.00 51 878.1